STARLINK-4405, 53201

Orbit data source: Space-Track

STARLINK-4405, 53201 is a payload satellite owned by SpaceX/Seattle (US) in SSO that was launched on Fri, 22 Jul 2022 UTC via an FALCON 9 launch vehicle from the Air Force Western Test Range (AFWTR). Payload-class satellites include a variety of spacecraft equipped with specific instruments for various scientific and technological missions. These include communications satellites like Starlink; space stations such as the ISS; scientific satellites like the Hubble; Earth observation satellites from companies like Planet Labs, Umbra, and HawkEye 360; GPS; miniature CubeSats for education and research; and military/defense satellites.

Loading next visibility...
Identifier
53201, 2022-084N
Orbit
SSO
Country
Flag of USUS
Related business
Manufacturer
SpaceX/Seattle
Mission
Partially operational Commercial Communications
Bus & Motor
STARLINK, Unknown motor
Mass
297 kg wet, ~275 kg dry
Launch date (UTC)
2022-07-22 (4 years ago)
Launch vehicle
FALCON 9
Launch site
Air Force Western Test Range (AFWTR)
Object type
Payload
Rocket body
Debris
Shape & HBR
Box + 1 Pan, 10.1 m
Radar Cross Section
13.562 m², Large (>1 m²)

Expand to show TLE details & history
Last TLE update: 2 days ago

TLE from 2 days ago
0 STARLINK-4405
1 53201U 22084N   26171.41668980  .00065888  00000-0  17536-2 0  9995
2 53201  97.5988 233.9072 0001365  93.5317 172.7582 15.37970511  5701
Epoch: 2026-06-20T10:00Z
TLE epoch observation values (Epoch: 2026-06-20T10:00:01.998Z)
Latitude
-81.60042°
Longitude
-68.69289°
Altitude
481.325 km
Speed
7.623 km/s
True Right ascension
23h 19m 47s
True Declination
-81° 32' 55"
Sunlit
Object was in full shadow at epoch
Visualization orbit readout
Latitude
Unknown
Longitude
Unknown
Altitude
Unknown
Speed
Unknown
Apparent Right ascension
Unknown
Apparent Declination
Unknown
Sunlit
N/A
Visualization observer readout
Local Sidereal Time
21:23:18
Azimuth
Unknown
Elevation
Unknown
Doppler factor
Unknown
Orbital elements
Apogee altitude
449.994 km
Perigee altitude
448.13 km
Semi-major axis
6,827.199 km
Eccentricity
0.00014
Inclination
97.5988°
RAAN
233.9072°
Arg. of periapsis
93.5317°
True anomaly
172.76017°
Mean anomaly
172.7582°
Eccentric anomaly
172.75919°
Mean motion
3.84751 °/min
Orbital period
93.57 mins
BSTAR
0.0017536
Loading maneuver chart data...
Computing Atmospheric mass density...
Loading historical data...
Loading historical data...
Loading historical data...
Loading historical data...
Loading historical data...
Loading historical data...
Loading historical data...

Documentation

Showing up to 5 results
|